Flight Track Log - Related Links

Times and Time Zones

All times are in EDT time to prevent confusion due to time zone crossing. See the DAL6234 flight status page for this flight to view local times or setup timezone preferences in your user account.

Time Position Orientation Groundspeed Altitude Reporting Facility
EDT Latitude Longitude Course Direction KTS MPH feet Rate Location/Type
Mon 06:08:55 PM 43.1078 -76.1292 255° West 164 189 1,000  Level Boston Center
Mon 06:10:08 PM 43.0925 -76.2078 255° West 210 242 3,900 2,667 Climbing Boston Center
Mon 06:11:10 PM 43.0483 -76.1567 140° Southeast 274 315 7,000 2,976 Climbing Boston Center
Mon 06:12:13 PM 43.0053 -76.0689 124° Southeast 276 318 10,100 2,160 Climbing Boston Center
Mon 06:13:15 PM 42.9456 -75.9775 132° Southeast 292 336 11,500 1,561 Climbing Boston Center
Mon 06:14:16 PM 42.8781 -75.8744 132° Southeast 330 380 13,300 1,881 Climbing Boston Center
Mon 06:15:13 PM 42.8061 -75.7656 132° Southeast 366 421 15,200 2,359 Climbing Boston Center
Mon 06:16:13 PM 42.7322 -75.6514 131° Southeast 388 447 17,900 2,585 Climbing Boston Center
Mon 06:17:16 PM 42.6622 -75.5433 131° Southeast 395 455 20,500 1,550 Climbing Boston Center
Mon 06:18:13 PM 42.5942 -75.4383 131° Southeast 387 445 21,000 254 Climbing Boston Center
Mon 06:19:14 PM 42.5106 -75.3667 148° Southeast 370 426 21,000  Level Boston Center
Mon 06:20:16 PM 42.4156 -75.3314 165° South 355 409 21,000 -100 Level Boston Center
Mon 06:21:14 PM 42.3253 -75.2822 158° South 355 409 20,800 -814 Descending Boston Center
Mon 06:22:14 PM 42.2844 -75.1622 115° Southeast 333 383 19,400 -1,388 Descending Boston Center
Mon 06:23:15 PM 42.2542 -75.0264 107° East 325 374 18,000 -706 Descending Boston Center
Mon 06:24:13 PM 42.2300 -74.8992 104° East 340 391 18,000  Level Boston Center
Mon 06:25:13 PM 42.2056 -74.7722 105° East 345 397 18,000  Level Boston Center
Mon 06:26:14 PM 42.1789 -74.6422 105° East 350 403 18,000  Level Boston Center
Mon 06:27:14 PM 42.1564 -74.5153 103° East 350 403 18,000  Level Boston Center
Mon 06:28:15 PM 42.1294 -74.3800 105° East 360 414 18,000  Level Boston Center
Mon 06:29:13 PM 42.0861 -74.2333 112° Southeast 384 442 18,000  Level Boston Center
Mon 06:30:13 PM 42.0375 -74.1314 123° Southeast 372 428 18,000  Level Boston Center
Mon 06:31:15 PM 41.9850 -74.0294 125° Southeast 345 397 18,000  Level Boston Center
Mon 06:32:15 PM 41.9261 -73.9106 124° Southeast 345 397 18,000 -203 Level Boston Center
Mon 06:33:13 PM 41.8667 -73.8311 135° Southeast 332 382 17,600 -1,109 Descending Boston Center
Mon 06:34:14 PM 41.7750 -73.8181 174° South 296 341 15,800 -1,574 Descending Boston Center
Mon 06:35:15 PM 41.6939 -73.8106 176° South 296 341 14,400 -1,513 Descending Boston Center
Mon 06:36:13 PM 41.6128 -73.8089 179° South 289 333 12,800 -1,431 Descending Boston Center
Mon 06:37:25 PM 41.5167 -73.8000 176° South 290 334 11,300 -1,455 Descending New York TRACON
Mon 06:38:25 PM 41.4500 -73.7667 159° South 278 320 9,600 -1,700 Descending New York TRACON
Mon 06:39:25 PM 41.3667 -73.7333 163° South 268 308 7,900 -1,700 Descending New York TRACON
Mon 06:40:25 PM 41.3000 -73.7000 159° South 268 308 6,200 -1,650 Descending New York TRACON
Mon 06:41:25 PM 41.2333 -73.6500 151° Southeast 269 310 4,600 -1,100 Descending New York TRACON
Mon 06:42:25 PM 41.1667 -73.6167 159° South 266 306 4,000 -313 Descending New York TRACON
Mon 06:43:20 PM 41.1167 -73.6000 166° South 219 252 4,000  Level New York TRACON
Mon 06:44:19 PM 41.0667 -73.6333 207° Southwest 181 208 4,000  Level New York TRACON
Mon 06:45:19 PM 41.0333 -73.6667 217° Southwest 185 213 4,000 -143 Level New York TRACON
Mon 06:46:25 PM 40.9833 -73.7000 207° Southwest 184 212 3,700 -500 Descending New York TRACON
Mon 06:47:19 PM 40.9500 -73.7500 229° Southwest 182 209 3,000 -526 Descending New York TRACON
Mon 06:48:19 PM 40.9000 -73.7833 207° Southwest 172 198 2,700 -550 Descending New York TRACON
Mon 06:49:19 PM 40.8667 -73.8000 201° Southwest 158 182 1,900 -783 Descending New York TRACON
Mon 06:50:14 PM 40.8333 -73.8333 217° Southwest 131 151 1,200 -750 Descending New York TRACON
Mon 06:51:19 PM 40.8000 -73.8667 217° Southwest 129 148 400 -738 Descending New York TRACON
Mon 06:53:00 PM 40.7772 -73.8726 180° South  Level Estimated
Mon 07:00:00 PM 40.7772 -73.8726 180° South  Level Estimated

Login

Don't have an account? Register now (free) for customized features, flight alerts, and more!